GFSGL_sfc_dewp_231.txt.gz
Dewpoint
36 35 34 32 30 27 26 26 26 25 24 22 22 22 22 21 20 20 19 19 18 16 14 16 17 15 15 15 16 14 14 15 13 13 14 14 12 11 10 10 9 8 10
33 32 30 27 25 23 23 24 24 23 23 21 20 20 20 20 19 18 16 18 16 13 13 12 14 13 14 15 15 14 14 15 15 13 14 13 11 10 9 7 7 8 9
31 28 22 21 21 21 22 23 23 22 21 20 18 18 18 17 17 17 16 17 16 13 12 11 12 15 13 14 15 14 15 15 17 15 13 12 10 8 6 8 8 10 6
25 22 20 20 19 20 20 22 22 20 19 19 19 18 17 16 15 14 14 15 16 15 13 13 12 13 13 13 13 15 15 17 17 14 13 10 7 6 9 9 10 7 5
20 19 19 20 19 20 20 20 21 20 20 20 20 20 20 19 12 14 12 13 13 14 14 11 12 15 14 14 13 15 16 17 15 14 12 8 4 8 10 10 7 5 3
17 18 19 19 18 19 18 18 18 18 20 20 19 19 19 20 23 20 13 11 11 11 11 12 13 14 12 15 17 19 18 16 15 13 9 4 7 9 8 5 5 4 2
18 18 18 18 17 18 17 17 16 16 15 15 16 17 17 18 21 20 20 15 12 13 12 11 12 11 14 12 16 18 18 17 16 8 5 8 9 5 2 4 3 4 -0
18 18 18 17 16 16 16 15 15 15 13 13 12 12 13 13 17 17 17 17 15 14 13 13 14 13 13 15 14 19 13 9 6 7 10 8 3 3 3 3 3 0 -1
17 17 17 16 16 15 15 14 13 13 12 11 11 11 11 11 14 15 15 15 14 13 13 13 14 14 16 17 19 12 8 5 9 13 11 9 9 9 7 1 -0 -2 -5
17 17 17 17 16 15 15 14 14 13 10 13 11 11 14 11 14 15 15 15 14 14 14 14 17 15 17 18 16 9 7 7 5 2 -1 1 1 0 4 -1 -2 -3 -4
18 18 17 16 16 15 15 14 14 13 12 13 11 12 13 14 12 15 16 14 14 14 15 16 15 17 18 17 16 7 8 7 0 -2 -3 -3 -3 -3 -3 -3 -2 -3 -4
18 17 18 19 16 17 19 16 14 13 13 13 12 13 14 14 16 16 15 14 14 14 14 15 16 17 15 14 9 9 10 1 -2 -4 -5 -5 -6 -5 -4 -4 -3 -3 -2
21 22 20 20 20 18 18 16 15 14 13 12 13 12 12 14 13 13 14 16 16 16 16 19 16 13 9 3 4 6 -0 -3 -4 -6 -7 -7 -7 -6 -5 -5 -4 -4 -3
22 20 19 17 16 16 16 15 13 12 12 12 12 11 11 11 13 14 16 16 18 17 14 9 9 5 1 -0 -3 -3 -5 -6 -7 -7 -8 -8 -7 -7 -7 -7 -7 -7 -7
22 18 17 16 16 13 13 13 12 12 12 10 10 12 12 12 14 15 16 18 19 14 5 4 -0 -2 -3 -4 -5 -7 -7 -7 -8 -8 -9 -10 -9 -9 -9 -8 -9 -9 -10
17 15 14 13 12 11 10 10 14 15 15 14 14 14 15 12 14 15 15 17 19 12 -0 -3 -5 -5 -6 -7 -8 -9 -9 -10 -10 -10 -11 -11 -11 -11 -10 -10 -10 -11 -11
17 15 12 10 9 8 8 9 8 11 12 13 13 14 14 13 13 14 18 13 9 2 -6 -7 -7 -6 -7 -8 -9 -10 -12 -11 -12 -12 -12 -12 -12 -12 -12 -12 -12 -11 -11
12 9 9 8 8 8 9 9 10 9 9 8 9 13 12 11 12 12 13 1 -4 -5 -8 -8 -9 -9 -10 -11 -12 -13 -14 -14 -14 -14 -14 -14 -15 -14 -14 -14 -12 -13 -12
6 4 5 6 8 9 9 9 9 7 6 5 3 4 4 9 9 7 3 -6 -8 -8 -9 -9 -10 -12 -13 -14 -14 -16 -18 -18 -17 -17 -17 -17 -16 -16 -15 -14 -14 -14 -13
3 4 6 8 9 9 9 8 6 5 3 1 -1 -2 -4 -4 -7 -10 -11 -12 -12 -12 -12 -13 -13 -15 -16 -17 -18 -19 -21 -21 -20 -19 -19 -18 -17 -16 -16 -16 -15 -14 -13
6 6 7 8 7 7 6 4 2 0 -2 -6 -6 -4 8 -10 -12 -13 -12 -13 -14 -13 -14 -15 -15 -16 -18 -19 -21 -21 -23 -22 -21 -21 -19 -19 -18 -19 -16 -16 -15 -14 -14
6 4 5 4 4 2 0 -0 -3 -6 -10 -11 -11 -10 3 -14 -15 -15 -16 -16 -16 -17 -18 -20 -19 -19 -19 -20 -20 -21 -22 -22 -20 -21 -20 -21 -20 -18 -18 -17 -16 -14 -12
4 3 0 -3 -1 -1 -6 -10 -11 -14 -16 -18 -19 -16 -18 -18 -19 -19 -19 -18 -18 -19 -19 -23 -23 -22 -21 -23 -23 -23 -23 -20 -19 -20 -21 -20 -20 -19 -19 -18 -16 -15 -13
0 -0 -0 -4 -9 -12 -13 -16 -18 -18 -20 -21 -22 -20 -19 -20 -21 -20 -20 -19 -20 -19 -21 -23 -24 -24 -22 -21 -21 -23 -24 -23 -21 -21 -23 -22 -21 -20 -19 -18 -16 -14 -14
-3 -4 -6 -10 -14 -17 -19 -21 -21 -25 -25 -23 -21 -23 -23 -23 -22 -20 -20 -21 -22 -22 -21 -21 -22 -22 -23 -23 -23 -23 -22 -17 -18 -18 -21 -23 -21 -20 -19 -17 -16 -15 -14
-7 -10 -14 -18 -21 -23 -23 -22 -23 -25 -24 -22 -22 -23 -23 -22 -20 -20 -20 -21 -21 -20 -21 -20 -20 -23 -23 -22 -22 -19 -18 -12 -12 -15 -18 -17 -17 -16 -15 -15 -12 -8 -8

GFSGL_sfc_dewp_234.txt.gz
Dewpoint
38 37 36 35 34 32 30 29 26 24 23 22 21 20 19 19 18 18 18 16 14 13 13 15 14 12 12 12 13 13 11 12 10 10 11 14 12 11 9 8 8 7 8
35 34 33 32 31 29 26 25 24 22 22 21 20 20 18 18 17 15 14 14 12 11 10 10 11 9 10 12 12 11 11 12 13 12 13 11 11 10 6 5 6 7 9
34 33 31 30 27 24 24 22 22 20 17 17 17 17 16 16 15 14 14 14 11 10 9 8 9 11 10 10 9 11 11 12 14 14 12 12 11 8 4 8 8 8 4
31 30 28 27 24 24 23 21 19 18 16 15 15 15 14 13 12 12 12 13 13 12 11 11 10 10 11 10 8 10 12 14 14 14 12 10 9 4 8 7 6 5 2
31 28 26 23 22 23 21 20 19 17 17 17 17 17 14 12 10 11 10 10 10 11 12 10 11 14 13 14 11 12 14 14 13 12 10 8 4 6 6 5 3 3 2
28 26 21 20 19 20 20 20 19 18 18 18 18 19 19 20 20 16 11 9 9 9 9 10 10 15 12 15 16 19 19 15 13 12 9 4 4 6 4 2 3 4 4
22 19 18 18 18 18 17 17 17 17 17 17 17 17 17 20 22 22 19 15 12 12 11 10 9 9 14 11 15 17 19 17 16 10 6 5 5 2 1 2 2 3 1
18 17 18 18 17 17 16 15 15 14 13 13 12 13 13 13 18 18 19 16 14 13 13 12 12 11 12 15 14 17 13 9 6 7 8 7 3 3 3 2 2 1 1
17 16 17 17 16 16 15 14 14 13 13 11 11 11 10 9 14 15 15 14 13 13 13 12 12 13 15 17 16 11 9 7 8 12 13 9 10 9 7 2 1 -0 -0
16 17 16 18 16 15 14 14 14 12 10 11 10 10 13 9 14 15 15 15 14 12 12 12 16 15 17 21 17 12 9 8 8 7 1 2 2 1 5 0 -1 -2 -2
18 18 17 16 17 15 15 15 14 12 12 13 11 12 12 13 12 15 16 14 13 13 14 13 13 17 19 17 15 9 9 8 6 1 0 -1 -1 -1 -1 -1 -0 -1 -2
19 18 19 20 16 17 21 18 15 15 15 13 13 12 13 13 15 14 14 14 15 15 14 14 16 17 16 13 9 10 11 4 1 0 -1 -2 -4 -3 -2 -1 -0 -0 -0
21 22 22 22 22 21 20 18 17 16 15 13 13 13 11 12 13 14 16 17 17 16 17 17 16 13 10 5 6 7 1 -0 -1 -2 -3 -4 -5 -3 -2 -1 -1 -1 -0
23 22 22 21 19 20 18 17 18 16 14 13 13 13 15 15 14 16 17 18 19 17 15 12 10 5 3 4 1 -0 -2 -3 -4 -4 -4 -5 -4 -3 -3 -3 -3 -3 -3
22 20 21 21 20 17 16 15 13 13 14 16 18 18 16 15 14 16 17 19 17 14 12 10 6 5 4 2 1 -1 -2 -3 -5 -4 -5 -5 -5 -4 -4 -3 -4 -4 -4
21 22 20 17 16 15 15 16 17 17 17 16 17 16 15 13 15 15 17 16 17 11 8 4 4 3 1 -1 -2 -3 -4 -5 -5 -6 -6 -6 -6 -6 -6 -5 -4 -5 -5
23 19 17 16 15 14 14 14 15 14 15 16 15 15 15 13 14 14 16 12 8 5 4 4 3 1 -1 -3 -4 -5 -6 -7 -7 -8 -7 -7 -6 -7 -8 -7 -7 -7 -6
21 17 17 16 15 15 14 14 14 14 13 11 12 12 11 12 12 12 11 5 5 4 3 2 -0 -1 -3 -4 -5 -6 -7 -8 -8 -9 -8 -8 -8 -8 -9 -9 -8 -9 -8
17 15 15 15 15 14 14 13 12 10 10 10 9 8 6 9 8 5 3 2 1 2 1 -1 -1 -3 -4 -5 -6 -7 -9 -10 -10 -12 -11 -11 -10 -9 -10 -10 -10 -11 -11
12 12 14 14 14 13 12 11 10 10 9 8 7 6 7 5 4 2 1 -0 -0 -1 -2 -3 -4 -4 -6 -7 -8 -9 -10 -11 -10 -10 -10 -10 -10 -10 -11 -11 -11 -11 -11
14 13 12 14 13 12 11 10 9 8 7 6 5 3 8 2 0 1 0 -0 -2 -3 -4 -5 -5 -6 -7 -8 -9 -10 -11 -11 -11 -12 -12 -11 -11 -13 -12 -12 -12 -11 -10
14 13 12 11 10 9 9 8 7 6 4 4 2 0 3 -1 -1 -2 -2 -3 -4 -5 -6 -7 -8 -8 -8 -10 -10 -11 -12 -12 -12 -11 -11 -12 -13 -12 -13 -13 -13 -12 -11
11 10 9 8 8 4 5 5 4 4 2 1 -1 -1 -1 -1 -3 -5 -5 -5 -6 -7 -8 -9 -10 -11 -10 -11 -12 -12 -13 -13 -11 -11 -13 -14 -14 -13 -13 -13 -13 -13 -12
9 9 8 7 6 5 4 3 1 -4 -1 -1 -1 -2 -3 -5 -6 -7 -8 -8 -8 -9 -9 -10 -12 -13 -13 -13 -11 -11 -12 -14 -14 -14 -16 -16 -16 -16 -14 -14 -13 -12 -11
9 8 6 5 4 3 0 1 1 -1 -2 -3 -3 -5 -6 -7 -8 -8 -8 -9 -10 -12 -11 -12 -12 -12 -13 -15 -15 -15 -14 -11 -13 -14 -13 -16 -17 -17 -16 -14 -13 -12 -11
5 4 2 1 0 0 1 1 -0 -3 -4 -5 -6 -7 -8 -9 -10 -9 -9 -10 -12 -12 -12 -12 -12 -13 -14 -14 -14 -12 -14 -9 -11 -14 -16 -14 -14 -13 -12 -11 -11 -10 -8

GFSGL_sfc_dewp_237.txt.gz
Dewpoint
38 37 36 35 35 34 33 33 32 30 27 25 24 23 21 20 20 20 19 17 16 15 16 16 13 13 12 12 13 13 12 12 10 11 13 15 14 14 13 11 9 7 10
36 35 34 34 33 33 32 30 29 25 25 24 21 20 19 18 18 17 14 15 13 13 12 12 11 8 11 12 12 11 12 12 12 12 14 14 13 13 12 6 6 7 9
34 34 33 32 32 31 31 28 25 23 22 21 20 19 18 17 15 16 16 14 12 11 10 10 10 11 11 11 10 10 12 10 14 14 14 14 13 12 8 8 8 8 4
34 33 32 32 31 31 27 23 21 19 17 17 17 16 16 14 12 14 13 14 13 12 13 12 12 11 11 11 10 11 10 14 15 14 14 12 11 9 8 7 6 6 4
33 32 31 31 29 25 23 21 19 18 17 16 16 15 14 13 10 13 11 12 12 12 13 11 12 15 13 14 13 12 14 15 16 14 12 11 8 7 6 5 4 4 4
32 30 30 29 25 22 20 20 19 19 19 19 19 20 20 14 18 16 12 10 9 9 9 11 11 16 14 16 15 17 18 19 14 13 11 7 5 5 5 4 4 3 2
29 28 26 22 21 21 20 19 18 18 18 18 18 19 20 23 24 22 18 15 13 13 11 11 9 8 14 11 15 17 20 17 15 10 6 6 6 5 4 5 4 3 1
26 22 20 19 18 18 18 17 17 17 16 15 16 16 16 17 21 20 19 17 16 14 13 12 11 11 12 14 15 15 12 10 7 7 8 7 6 6 5 3 3 3 2
18 18 18 18 18 17 17 16 15 15 14 13 13 13 12 11 15 15 16 15 13 12 13 12 12 12 15 18 21 14 11 8 11 13 14 12 11 10 7 4 1 -1 -3
17 17 18 18 17 17 16 16 16 15 11 12 10 12 17 10 16 16 16 15 13 12 11 12 16 16 18 23 16 11 11 9 9 9 6 5 4 2 5 1 1 -2 -2
18 19 18 18 17 16 16 17 16 14 13 15 12 13 13 14 12 16 16 13 12 13 14 15 14 18 18 17 15 10 10 11 7 5 4 3 2 1 1 1 2 0 -2
19 19 20 20 17 18 21 19 18 18 18 16 15 15 13 12 14 13 15 16 17 17 16 17 18 16 15 14 11 12 11 6 4 3 1 1 -1 -2 -1 0 1 1 1
22 22 23 23 23 22 23 20 19 20 19 16 15 16 13 14 16 15 16 18 18 17 18 17 16 13 11 9 8 9 6 3 1 -1 -2 -2 -2 -2 -1 -1 0 1 1
23 23 23 22 22 23 23 21 21 19 18 17 16 16 17 16 15 18 19 20 21 20 15 13 12 9 8 8 6 4 2 1 -2 -3 -3 -2 -2 -3 -3 -2 -2 -2 -3
23 21 22 23 22 20 19 18 16 15 19 20 20 19 18 17 16 17 19 19 17 13 11 12 10 8 7 6 5 3 2 0 -2 -2 -4 -4 -4 -4 -4 -3 -3 -5 -5
22 23 23 22 20 18 17 18 19 19 18 20 17 17 18 15 16 16 17 15 14 13 9 8 6 6 4 2 1 -1 -1 -4 -3 -4 -6 -6 -6 -6 -6 -5 -5 -6 -7
26 24 21 19 18 18 18 18 16 17 18 17 16 16 15 14 14 15 15 12 9 8 6 6 4 3 1 -0 -1 -3 -4 -4 -7 -7 -7 -7 -7 -7 -8 -8 -7 -7 -8
23 20 20 19 18 18 18 18 18 17 15 13 14 12 12 13 12 12 11 8 7 7 5 3 1 0 -1 -2 -3 -4 -5 -6 -7 -7 -8 -9 -9 -9 -10 -10 -9 -10 -11
20 20 19 19 18 17 17 16 15 14 13 12 12 10 9 9 9 7 6 4 2 1 1 0 -1 -2 -3 -4 -5 -6 -7 -8 -9 -11 -13 -13 -12 -11 -11 -11 -11 -12 -12
16 15 16 17 17 16 15 14 13 12 12 10 9 8 9 6 7 5 4 3 1 0 -1 -2 -3 -3 -4 -6 -7 -8 -9 -10 -10 -11 -11 -10 -11 -11 -12 -12 -13 -13 -14
17 17 14 17 16 16 15 13 12 11 9 8 7 6 8 4 3 2 2 1 -1 -2 -3 -4 -4 -5 -6 -7 -8 -9 -10 -10 -10 -11 -11 -12 -12 -13 -13 -13 -13 -14 -14
17 17 16 14 13 13 12 11 10 8 7 6 5 4 6 0 2 1 -0 -1 -2 -3 -4 -5 -6 -7 -7 -8 -9 -10 -11 -12 -12 -12 -12 -12 -13 -13 -14 -13 -13 -14 -15
15 14 13 12 9 6 8 8 7 7 5 4 2 2 2 1 -0 -2 -3 -3 -3 -5 -5 -7 -8 -9 -9 -10 -10 -12 -13 -13 -13 -12 -13 -14 -15 -15 -15 -15 -15 -16 -16
13 12 11 10 10 9 7 6 4 -2 -2 1 2 1 -0 -2 -3 -4 -5 -5 -6 -6 -7 -8 -9 -12 -12 -12 -11 -11 -11 -12 -13 -14 -17 -17 -17 -17 -17 -17 -16 -15 -14
12 11 10 8 7 5 3 3 3 2 1 1 -0 -1 -2 -3 -4 -5 -5 -6 -7 -8 -10 -10 -10 -11 -13 -14 -14 -15 -14 -10 -11 -12 -14 -17 -18 -18 -18 -18 -17 -15 -14
9 7 6 5 4 4 4 3 2 0 -2 -2 -2 -3 -4 -5 -6 -6 -7 -7 -8 -9 -10 -10 -11 -12 -13 -12 -13 -11 -12 -6 -10 -13 -15 -16 -17 -16 -15 -15 -15 -13 -12

GFSGL_sfc_dewp_240.txt.gz
Dewpoint
39 38 37 36 35 35 34 34 33 33 32 32 30 27 27 26 23 20 19 18 18 18 18 17 15 15 15 15 15 15 14 13 12 13 14 16 15 15 14 12 11 9 10
36 35 35 35 34 33 32 32 32 31 31 29 27 25 21 20 20 18 16 16 16 16 16 15 14 10 12 13 13 12 13 13 13 12 14 15 15 13 12 8 8 6 7
35 34 33 33 33 32 32 31 32 31 30 27 23 20 19 20 19 18 16 15 14 14 13 13 13 14 13 13 12 12 13 12 15 15 14 16 13 12 9 10 7 6 3
34 34 33 32 32 32 32 31 30 28 23 21 20 19 18 16 16 17 16 15 14 15 16 15 14 15 14 14 13 14 14 16 16 16 15 13 11 10 9 6 5 5 4
33 33 32 32 31 31 29 27 24 20 20 19 17 16 16 13 12 15 14 14 14 14 15 13 16 17 14 15 14 15 16 16 18 16 13 11 8 7 6 5 4 5 4
32 31 31 30 29 27 23 21 20 20 19 19 19 19 16 14 19 17 15 12 12 11 11 12 13 18 15 14 16 18 19 20 17 13 10 8 7 6 6 5 5 3 1
32 31 29 28 25 21 20 19 19 19 20 20 20 22 22 22 23 21 19 16 15 14 14 13 11 11 16 13 16 18 19 16 14 11 8 8 8 8 7 7 4 3 2
29 28 28 26 21 19 19 19 19 18 18 18 18 19 20 22 23 22 20 18 16 14 14 13 13 13 13 16 19 17 13 11 9 10 10 11 11 10 9 6 5 2 0
27 24 19 19 18 17 17 16 16 15 15 14 14 14 14 16 18 17 17 16 14 13 13 13 14 14 15 21 19 14 11 10 11 14 15 14 13 12 9 5 -8 -7 -6
18 18 18 18 18 17 17 16 17 14 12 13 12 15 18 15 17 18 18 17 14 14 14 13 18 16 17 18 17 13 10 10 12 10 7 6 6 5 6 3 2 -11 -4
18 18 18 18 17 17 17 17 16 14 15 15 14 15 15 15 16 17 16 14 15 17 18 18 19 18 17 17 17 12 11 12 7 4 3 3 3 4 3 3 2 0 -4
19 19 19 19 17 18 19 18 19 18 17 16 16 15 15 13 15 17 18 18 18 19 19 19 18 18 17 16 14 13 13 9 2 -1 -1 -2 -1 -1 -1 -1 -1 -1 -0
21 22 22 22 22 22 21 20 20 20 18 17 17 15 14 17 17 17 19 19 19 20 18 17 16 15 14 10 10 11 7 -1 -4 -10 -6 -5 -3 -2 -2 -4 -4 -2 -1
22 22 21 21 22 22 21 21 19 17 16 17 16 15 14 15 16 18 19 18 19 16 14 12 13 12 10 9 6 6 4 -1 -3 -6 -6 -4 -3 -5 -5 -4 -4 -4 -5
21 21 21 20 19 18 18 16 15 17 18 15 13 14 10 9 16 17 19 15 10 13 4 -1 -1 1 -1 0 -2 -5 -5 -4 -6 -7 -7 -8 -8 -7 -6 -5 -5 -7 -9
21 21 21 19 17 16 17 16 20 21 20 20 19 16 16 17 16 17 15 15 14 13 -6 -8 -4 -2 -3 -4 -7 -7 -8 -9 -8 -11 -15 -10 -10 -9 -9 -8 -8 -10 -10
20 18 18 16 16 15 15 14 14 18 19 18 18 17 16 15 14 15 14 13 11 7 -10 -11 -9 -9 -7 -7 -8 -9 -8 -9 -15 -13 -13 -10 -10 -10 -11 -12 -11 -11 -12
18 15 15 14 13 13 13 12 12 9 4 4 13 13 13 12 12 11 11 5 -8 -4 -13 -14 -15 -12 -11 -11 -11 -13 -13 -12 -14 -12 -13 -14 -18 -14 -14 -14 -14 -14 -14
15 14 12 12 12 12 12 11 9 8 5 -1 -2 5 5 10 11 9 9 -12 -15 -16 -16 -15 -14 -12 -12 -12 -12 -13 -14 -12 -13 -16 -13 -15 -16 -19 -16 -14 -14 -14 -14
12 12 10 11 10 10 9 8 6 2 -2 -5 -8 -7 -8 -6 -11 -13 -13 -15 -17 -14 -12 -13 -12 -14 -14 -14 -14 -15 -14 -15 -15 -17 -15 -14 -14 -18 -14 -15 -15 -16 -16
10 10 10 10 8 7 5 3 -1 -5 -8 -10 -9 -5 8 -10 -14 -16 -13 -13 -13 -12 -12 -13 -12 -14 -14 -13 -14 -14 -13 -13 -13 -14 -14 -14 -15 -18 -15 -15 -16 -17 -15
9 9 8 6 5 4 0 -3 -7 -9 -11 -11 -11 -9 7 -13 -15 -12 -12 -12 -12 -13 -12 -13 -10 -10 -11 -12 -13 -13 -14 -14 -14 -15 -16 -15 -15 -17 -16 -16 -17 -17 -15
8 7 4 -1 -1 -2 -6 -11 -11 -12 -13 -14 -14 -13 -15 -16 -17 -14 -11 -10 -11 -9 -10 -14 -11 -10 -10 -11 -12 -12 -14 -14 -15 -15 -17 -16 -16 -16 -18 -19 -19 -18 -17
5 4 3 -3 -6 -9 -12 -13 -15 -12 -16 -15 -16 -17 -16 -17 -14 -12 -10 -9 -9 -9 -9 -10 -11 -11 -11 -12 -12 -13 -13 -13 -13 -14 -18 -16 -17 -17 -19 -19 -18 -18 -17
3 1 -3 -7 -10 -14 -14 -14 -13 -15 -16 -16 -16 -17 -18 -14 -12 -11 -10 -10 -10 -9 -10 -10 -10 -12 -14 -15 -15 -14 -14 -11 -13 -13 -14 -19 -18 -19 -19 -18 -17 -17 -17
-1 -3 -7 -9 -13 -14 -14 -14 -14 -15 -16 -16 -17 -16 -14 -12 -9 -9 -9 -10 -10 -9 -11 -10 -11 -14 -15 -13 -14 -11 -10 -4 -6 -7 -11 -14 -16 -15 -16 -17 -16 -16 -15

GFSGL_sfc_dewp_246.txt.gz
Dewpoint
47 45 42 39 38 36 35 34 33 34 33 33 33 32 32 31 30 29 29 24 21 19 19 17 17 17 16 16 16 16 16 14 12 13 14 16 14 12 12 11 10 7 6
42 39 37 36 35 34 32 33 33 32 32 32 32 31 30 29 29 23 21 20 17 17 17 16 15 11 14 14 14 14 15 15 14 12 15 16 13 12 10 9 6 4 4
37 35 34 33 33 32 32 33 33 32 31 31 30 29 28 27 22 20 18 17 16 15 15 15 16 15 14 14 14 14 15 13 16 16 16 15 14 12 9 8 6 7 4
34 33 32 32 32 32 32 32 31 31 29 29 29 28 23 20 18 17 16 15 15 16 17 16 15 15 15 15 14 15 15 16 18 19 15 14 12 11 9 8 6 7 6
33 32 32 32 32 31 31 30 29 29 28 28 23 20 19 17 15 16 15 15 14 15 16 14 16 18 17 16 15 17 19 19 17 14 12 11 9 9 7 8 7 7 5
31 31 31 31 30 29 29 28 27 26 21 18 17 16 16 15 21 20 17 14 13 13 13 15 18 19 14 14 17 19 19 18 15 13 11 9 9 9 10 10 9 6 2
31 30 29 29 28 27 27 25 23 21 19 18 19 19 19 18 21 19 18 15 15 15 14 12 11 12 15 15 19 20 17 16 16 12 10 12 13 14 11 9 8 6 4
29 28 28 27 26 25 23 25 25 24 22 21 21 21 20 20 23 22 20 16 16 15 14 14 13 14 16 19 16 14 13 12 11 10 12 13 11 8 8 6 5 1 -2
27 27 27 26 22 24 24 24 24 21 21 21 21 21 21 20 22 20 18 16 13 13 13 14 14 15 18 22 17 14 13 11 11 14 14 13 12 10 8 4 -8 -14 -8
26 26 21 20 19 23 20 17 17 16 15 16 16 18 21 19 21 20 18 16 14 17 18 17 21 19 19 19 18 14 12 12 11 7 4 3 3 2 5 2 1 -16 -15
24 20 18 17 17 16 16 15 15 14 15 15 15 16 16 18 19 20 20 18 18 19 19 18 17 18 16 15 15 12 12 9 4 1 -0 -0 -1 -1 -0 1 1 -1 -12
18 17 18 18 15 17 18 17 17 16 16 14 14 15 16 18 21 22 23 22 21 19 16 17 16 15 15 14 13 13 12 7 -1 -5 -5 -4 -4 -4 -3 -2 -2 -2 -2
20 20 20 20 20 19 19 18 17 17 15 14 15 15 16 18 19 21 20 19 17 15 14 13 13 12 11 9 10 10 7 -3 -6 -12 -6 -5 -4 -3 -3 -6 -8 -6 -5
20 19 19 19 19 19 19 18 17 17 15 15 15 15 14 15 16 16 15 14 15 13 11 7 8 8 8 7 3 2 1 -3 -4 -6 -6 -6 -6 -13 -9 -8 -9 -9 -9
21 19 19 18 17 17 18 17 16 16 16 14 12 14 10 8 18 17 13 12 7 12 -5 -7 -6 -4 -4 -3 -3 -6 -7 -7 -9 -10 -9 -9 -9 -9 -10 -9 -10 -11 -13
19 18 17 16 17 19 20 20 23 22 21 20 19 15 15 17 16 14 14 13 11 12 -10 -13 -11 -7 -6 -5 -7 -7 -7 -11 -10 -11 -12 -12 -11 -11 -12 -12 -11 -14 -15
19 17 15 15 16 17 17 17 18 20 21 21 20 18 17 15 14 12 13 9 9 4 -16 -18 -15 -11 -8 -7 -9 -9 -9 -9 -15 -14 -12 -12 -12 -12 -14 -15 -14 -15 -16
14 13 15 15 12 10 10 9 15 12 8 7 15 14 14 12 11 11 11 4 -12 -10 -21 -20 -15 -12 -10 -10 -9 -10 -11 -11 -14 -12 -13 -13 -14 -15 -17 -17 -17 -18 -18
12 10 10 9 8 9 9 7 5 3 -2 -5 -6 2 1 11 10 9 8 -15 -17 -16 -19 -16 -14 -13 -11 -11 -11 -12 -13 -13 -13 -14 -14 -15 -16 -18 -19 -18 -18 -18 -18
6 8 8 7 6 7 7 5 1 -4 -9 -11 -12 -10 -14 -11 -12 -18 -20 -23 -23 -16 -14 -14 -12 -14 -13 -13 -13 -14 -16 -16 -16 -17 -18 -17 -16 -18 -18 -19 -18 -19 -19
6 4 5 2 1 1 1 1 -2 -6 -11 -16 -13 -11 6 -10 -15 -21 -19 -16 -16 -15 -14 -14 -13 -13 -13 -13 -14 -16 -17 -17 -16 -17 -17 -17 -17 -18 -17 -18 -18 -19 -19
5 2 1 -1 -5 -5 -7 -7 -8 -10 -16 -15 -14 -13 7 -17 -20 -19 -15 -14 -13 -15 -15 -15 -14 -14 -13 -13 -13 -14 -15 -16 -16 -17 -18 -18 -18 -17 -17 -18 -19 -19 -19
3 0 -2 -7 -8 -7 -13 -17 -12 -15 -18 -20 -20 -19 -20 -20 -21 -18 -15 -13 -14 -13 -13 -18 -16 -14 -13 -13 -14 -14 -14 -15 -14 -16 -17 -16 -15 -16 -17 -17 -18 -18 -19
0 0 -1 -7 -9 -11 -12 -14 -16 -13 -15 -20 -23 -22 -21 -20 -18 -16 -15 -14 -14 -13 -13 -14 -14 -14 -13 -13 -12 -13 -14 -14 -14 -14 -16 -15 -15 -16 -16 -17 -17 -17 -17
-4 -3 -1 -2 -5 -9 -14 -16 -15 -16 -8 -16 -20 -22 -21 -18 -17 -16 -15 -14 -14 -14 -14 -14 -13 -13 -14 -14 -14 -14 -14 -10 -12 -13 -13 -12 -14 -14 -15 -15 -15 -15 -16
-1 -1 -2 -6 -8 -11 -11 -12 -14 -10 -9 -11 -16 -16 -16 -16 -15 -15 -14 -14 -14 -13 -14 -12 -11 -14 -14 -13 -13 -10 -8 -2 -3 -4 -5 -9 -12 -13 -13 -14 -13 -13 -14